SPACEBEE-1 (43142 NORAD) Tracking and Keplerian Element Data

This shows tracking and keplerian element data for the satellite.

Feedback or suggestion? Click here.




ElementValue
Catalog43142
NameSPACEBEE-1
Epoch Orbit423
Epoch Day40.20360012
Epoch Year2018
RAAN102.4639
Inclination97.5521
Eccentricity0.000969
Argument of Perigee181.9213
Mean Anonmoly178.1987
Mean Motion15.22570367
Decay Rate3.131E-05
L11 43142U 18004AH 18040.20360012 .00003131 00000-0 13784-3 0 9998
L22 43142 97.5521 102.4639 0009690 181.9213 178.1987 15.22570367 4237

Live tracking and technical data element details for SPACEBEE-1 (NORAD 43142). SPACEBEE-1 can be tracked NOW for your location showing map with azimuth and elevation plus other details from your city location.

Track the satellite on the map from your city or location and see movement details for azimuth, elevation, latitude, longitude, range, height, and movement on the map or in text.







IsCatalogInMostPopularTable: catalog: 43142, numindb: 135
Update: records affected: 1



GetName: 43142 SPACEBEE-1

Hit Count: updated at: Fri, 16 Nov 2018 12:08:09 GMT